| time (UTC) | temp F | wind direction | speed MPH | gust MPH | rain 1hr in | rain 24hr in | rain mn in | humidity % | barometer mb |
| 20260504231541 | 65 | 253 | 1.0 | 4.0 | 0.00 | 0.11 | 0.11 | 46 | 998.5 |
| 20260504231041 | 66 | 355 | 0.0 | 4.0 | 0.00 | 0.11 | 0.11 | 46 | 998.4 |
| 20260504230542 | 66 | 161 | 1.0 | 4.0 | 0.00 | 0.11 | 0.11 | 47 | 998.4 |
| 20260504230058 | 66 | 212 | 0.0 | 4.0 | 0.00 | 0.11 | 0.11 | 46 | 998.3 |
| 20260504225543 | 66 | 213 | 1.0 | 4.0 | 0.00 | 0.11 | 0.11 | 46 | 998.3 |
| 20260504225044 | 66 | 222 | 2.0 | 4.0 | 0.00 | 0.11 | 0.11 | 46 | 998.3 |
| 20260504224556 | 66 | 345 | 0.0 | 7.0 | 0.00 | 0.11 | 0.11 | 47 | 998.2 |
| 20260504224039 | 66 | 194 | 1.0 | 7.0 | 0.00 | 0.11 | 0.11 | 47 | 998.1 |
| 20260504223539 | 66 | 150 | 0.0 | 4.0 | 0.00 | 0.11 | 0.11 | 50 | 998.1 |
| 20260504223039 | 66 | 275 | 0.0 | 8.0 | 0.00 | 0.11 | 0.11 | 49 | 998.0 |
| 20260504222540 | 66 | 309 | 2.0 | 8.0 | 0.00 | 0.11 | 0.11 | 47 | 998.0 |
| 20260504222038 | 66 | 209 | 2.0 | 6.0 | 0.00 | 0.11 | 0.11 | 47 | 998.0 |
| 20260504221539 | 66 | 108 | 1.0 | 4.0 | 0.00 | 0.11 | 0.11 | 48 | 998.1 |
| 20260504221037 | 66 | 296 | 1.0 | 4.0 | 0.00 | 0.11 | 0.11 | 49 | 998.2 |
| 20260504220537 | 66 | 137 | 1.0 | 4.0 | 0.00 | 0.11 | 0.11 | 48 | 998.1 |
| 20260504220040 | 66 | 167 | 2.0 | 6.0 | 0.00 | 0.11 | 0.11 | 47 | 998.1 |
| 20260504215536 | 66 | 138 | 0.0 | 6.0 | 0.00 | 0.11 | 0.11 | 48 | 998.1 |
| 20260504215040 | 66 | 173 | 1.0 | 6.0 | 0.00 | 0.11 | 0.11 | 48 | 998.2 |
| 20260504214543 | 66 | 153 | 1.0 | 8.0 | 0.00 | 0.11 | 0.11 | 48 | 998.2 |
| 20260504214036 | 66 | 142 | 3.0 | 8.0 | 0.00 | 0.11 | 0.11 | 47 | 998.3 |
| 20260504213536 | 66 | 167 | 1.0 | 5.0 | 0.00 | 0.11 | 0.11 | 48 | 998.1 |
| 20260504213036 | 66 | 141 | 1.0 | 5.0 | 0.00 | 0.11 | 0.11 | 48 | 998.1 |
| 20260504212535 | 66 | 142 | 2.0 | 6.0 | 0.00 | 0.11 | 0.11 | 47 | 998.3 |
| 20260504212035 | 66 | 138 | 2.0 | 7.0 | 0.00 | 0.11 | 0.11 | 47 | 998.0 |
| 20260504211537 | 66 | 165 | 1.0 | 10.0 | 0.00 | 0.11 | 0.11 | 48 | 998.2 |
| 20260504211035 | 66 | 262 | 3.0 | 10.0 | 0.00 | 0.11 | 0.11 | 46 | 998.1 |
| 20260504210535 | 67 | 173 | 4.0 | 9.0 | 0.00 | 0.11 | 0.11 | 45 | 998.0 |
| 20260504210043 | 67 | 139 | 2.0 | 13.0 | 0.00 | 0.11 | 0.11 | 46 | 998.1 |
| 20260504205535 | 68 | 252 | 4.0 | 13.0 | 0.00 | 0.11 | 0.11 | 45 | 998.0 |
| 20260504205034 | 68 | 174 | 1.0 | 11.0 | 0.00 | 0.11 | 0.11 | 46 | 998.0 |
| 20260504204538 | 67 | 180 | 5.0 | 17.0 | 0.00 | 0.11 | 0.11 | 45 | 998.1 |
| 20260504204034 | 67 | 179 | 5.0 | 17.0 | 0.00 | 0.11 | 0.11 | 45 | 998.0 |
| 20260504203534 | 67 | 171 | 5.0 | 11.0 | 0.00 | 0.11 | 0.11 | 45 | 998.0 |
| 20260504203034 | 68 | 232 | 6.0 | 12.0 | 0.00 | 0.11 | 0.11 | 43 | 998.1 |
| 20260504202532 | 69 | 193 | 3.0 | 9.0 | 0.00 | 0.11 | 0.11 | 45 | 998.2 |
| 20260504202031 | 69 | 321 | 2.0 | 7.0 | 0.00 | 0.11 | 0.11 | 46 | 998.2 |
| 20260504201529 | 68 | 186 | 2.0 | 9.0 | 0.00 | 0.11 | 0.11 | 46 | 998.3 |
| 20260504201029 | 68 | 285 | 3.0 | 9.0 | 0.00 | 0.11 | 0.11 | 47 | 998.3 |
| 20260504200530 | 67 | 197 | 2.0 | 8.0 | 0.00 | 0.11 | 0.11 | 47 | 998.5 |
| 20260504200028 | 67 | 328 | 4.0 | 9.0 | 0.00 | 0.11 | 0.11 | 48 | 998.5 |
| 20260504195524 | 67 | 246 | 2.0 | 10.0 | 0.00 | 0.11 | 0.11 | 49 | 998.5 |
| 20260504195023 | 66 | 315 | 2.0 | 11.0 | 0.00 | 0.11 | 0.11 | 49 | 998.7 |
| 20260504194522 | 65 | 246 | 3.0 | 11.0 | 0.00 | 0.11 | 0.11 | 49 | 998.7 |
| 20260504194021 | 65 | 112 | 2.0 | 10.0 | 0.00 | 0.11 | 0.11 | 48 | 998.9 |
| 20260504193521 | 65 | 167 | 2.0 | 10.0 | 0.00 | 0.11 | 0.11 | 48 | 998.9 |
| 20260504193020 | 65 | 26 | 3.0 | 10.0 | 0.00 | 0.11 | 0.11 | 51 | 999.0 |
| 20260504192519 | 64 | 235 | 2.0 | 11.0 | 0.00 | 0.11 | 0.11 | 51 | 999.1 |
| 20260504192017 | 64 | 175 | 5.0 | 11.0 | 0.00 | 0.11 | 0.11 | 51 | 999.2 |
| 20260504191520 | 64 | 178 | 5.0 | 17.0 | 0.00 | 0.11 | 0.11 | 50 | 999.2 |
| 20260504191018 | 63 | 153 | 7.0 | 16.0 | 0.00 | 0.11 | 0.11 | 52 | 999.2 |
| 20260504190520 | 63 | 305 | 5.0 | 10.0 | 0.00 | 0.11 | 0.11 | 52 | 999.3 |
| 20260504190013 | 63 | 148 | 3.0 | 10.0 | 0.00 | 0.11 | 0.11 | 52 | 999.4 |
| 20260504185513 | 62 | 299 | 2.0 | 13.0 | 0.00 | 0.11 | 0.11 | 54 | 999.5 |
| 20260504185010 | 62 | 155 | 3.0 | 13.0 | 0.00 | 0.11 | 0.11 | 56 | 999.5 |
| 20260504184510 | 61 | 249 | 3.0 | 12.0 | 0.00 | 0.11 | 0.11 | 56 | 999.6 |
| 20260504184009 | 60 | 109 | 4.0 | 11.0 | 0.00 | 0.11 | 0.11 | 57 | 999.7 |
| 20260504183512 | 61 | 223 | 3.0 | 10.0 | 0.00 | 0.11 | 0.11 | 56 | 999.7 |
| 20260504183008 | 61 | 300 | 4.0 | 11.0 | 0.00 | 0.11 | 0.11 | 62 | 999.8 |
| 20260504182506 | 60 | 271 | 3.0 | 11.0 | 0.00 | 0.11 | 0.11 | 60 | 1000.0 |
| 20260504182005 | 59 | 313 | 2.0 | 11.0 | 0.00 | 0.11 | 0.11 | 63 | 1000.2 |
| 20260504181505 | 60 | 249 | 2.0 | 11.0 | 0.00 | 0.11 | 0.11 | 63 | 1000.2 |
| 20260504181005 | 60 | 295 | 5.0 | 10.0 | 0.00 | 0.11 | 0.11 | 58 | 1000.1 |
| 20260504180504 | 60 | 231 | 2.0 | 14.0 | 0.00 | 0.11 | 0.11 | 61 | 1000.1 |
| 20260504180002 | 59 | 258 | 5.0 | 14.0 | 0.00 | 0.11 | 0.11 | 63 | 1000.3 |
| 20260504175500 | 59 | 175 | 6.0 | 15.0 | 0.00 | 0.11 | 0.11 | 64 | 1000.4 |
| 20260504175100 | 58 | 5 | 6.0 | 15.0 | 0.00 | 0.11 | 0.11 | 67 | 1000.3 |
| 20260504174559 | 58 | 319 | 1.0 | 8.0 | 0.00 | 0.11 | 0.11 | 62 | 1000.6 |
| 20260504174101 | 57 | 296 | 4.0 | 12.0 | 0.00 | 0.11 | 0.11 | 64 | 1000.5 |
| 20260504173557 | 57 | 122 | 3.0 | 12.0 | 0.00 | 0.11 | 0.11 | 67 | 1000.7 |
| 20260504173056 | 56 | 278 | 3.0 | 15.0 | 0.00 | 0.11 | 0.11 | 65 | 1000.7 |
| 20260504172556 | 56 | 327 | 4.0 | 15.0 | 0.00 | 0.11 | 0.11 | 67 | 1000.7 |
| 20260504172053 | 56 | 105 | 4.0 | 11.0 | 0.00 | 0.11 | 0.11 | 70 | 1000.6 |
| 20260504171552 | 55 | 217 | 4.0 | 11.0 | 0.00 | 0.11 | 0.11 | 80 | 1000.5 |
| 20260504171050 | 54 | 316 | 2.0 | 4.0 | 0.00 | 0.11 | 0.11 | 82 | 1000.6 |
| 20260504170548 | 53 | 175 | 0.0 | 7.0 | 0.00 | 0.11 | 0.11 | 79 | 1000.7 |
| 20260504151035 | 44 | 146 | 0.0 | 2.0 | 0.07 | 0.10 | 0.10 | 92 | 1001.5 |
| 20260504150535 | 44 | 146 | 0.0 | 3.0 | 0.07 | 0.10 | 0.10 | 92 | 1001.5 |
| 20260504141031 | 45 | 325 | 0.0 | 7.0 | 0.02 | 0.03 | 0.03 | 87 | 1001.3 |
| 20260504140531 | 45 | 325 | 0.0 | 7.0 | 0.02 | 0.03 | 0.03 | 85 | 1001.2 |
| 20260504130528 | 48 | 232 | 1.0 | 12.0 | 0.00 | 0.01 | 0.01 | 72 | 1000.5 |
| 20260504110511 | 44 | 139 | 1.0 | 3.0 | 0.00 | 0.00 | 0.00 | 86 | 1000.9 |
| 20260504100506 | 43 | 165 | 2.0 | 5.0 | 0.00 | 0.00 | 0.00 | 86 | 1001.0 |
| 20260504081557 | 43 | 202 | 2.0 | 5.0 | 0.00 | 0.00 | 0.00 | 76 | 1001.6 |
| 20260504081053 | 43 | 172 | 2.0 | 6.0 | 0.00 | 0.00 | 0.00 | 76 | 1001.6 |
| 20260504080553 | 43 | 134 | 2.0 | 4.0 | 0.00 | 0.00 | 0.00 | 75 | 1001.6 |
| 20260504050530 | 42 | 144 | 2.0 | 7.0 | 0.00 | 0.00 | 0.00 | 56 | 1002.0 |
| 20260504045528 | 42 | 167 | 1.0 | 3.0 | 0.00 | 0.00 | 0.00 | 57 | 1002.2 |
| 20260504045032 | 42 | 195 | 1.0 | 3.0 | 0.00 | 0.00 | 0.00 | 56 | 1002.2 |
| 20260504044526 | 42 | 215 | 0.0 | 4.0 | 0.00 | 0.00 | 0.00 | 58 | 1002.2 |
| 20260504044030 | 42 | 142 | 0.0 | 4.0 | 0.00 | 0.00 | 0.00 | 58 | 1002.2 |
| 20260504043525 | 41 | 165 | 1.0 | 3.0 | 0.00 | 0.00 | 0.00 | 58 | 1002.2 |
| 20260504043025 | 41 | 169 | 0.0 | 4.0 | 0.00 | 0.00 | 0.00 | 59 | 1002.3 |
| 20260504042523 | 41 | 161 | 2.0 | 4.0 | 0.00 | 0.00 | 0.00 | 59 | 1002.3 |
| 20260504042021 | 40 | 175 | 2.0 | 6.0 | 0.00 | 0.00 | 0.00 | 61 | 1002.3 |
| 20260504041519 | 39 | 113 | 2.0 | 6.0 | 0.00 | 0.00 | 0.00 | 62 | 1002.3 |
| 20260504041018 | 38 | 162 | 1.0 | 4.0 | 0.00 | 0.00 | 0.00 | 64 | 1002.3 |
| 20260504040517 | 38 | 145 | 1.0 | 3.0 | 0.00 | 0.00 | 0.00 | 66 | 1002.3 |
| 20260504040017 | 37 | 138 | 1.0 | 3.0 | 0.00 | 0.00 | 0.00 | 67 | 1002.3 |
| 20260504035517 | 37 | 145 | 1.0 | 3.0 | 0.00 | 0.00 | 0.00 | 67 | 1002.3 |
| 20260504035016 | 37 | 136 | 1.0 | 2.0 | 0.00 | 0.00 | 0.00 | 68 | 1002.4 |
| 20260504034516 | 37 | 136 | 1.0 | 2.0 | 0.00 | 0.00 | 0.00 | 67 | 1002.3 |
| 20260504034015 | 37 | 136 | 0.0 | 2.0 | 0.00 | 0.00 | 0.00 | 67 | 1002.4 |
| 20260504033515 | 37 | 136 | 0.0 | 2.0 | 0.00 | 0.00 | 0.00 | 68 | 1002.4 |
| 20260504033016 | 37 | 136 | 1.0 | 2.0 | 0.00 | 0.00 | 0.00 | 67 | 1002.3 |
| 20260504032516 | 37 | 136 | 0.0 | 2.0 | 0.00 | 0.00 | 0.00 | 67 | 1002.3 |
| 20260504032016 | 37 | 136 | 0.0 | 2.0 | 0.00 | 0.00 | 0.00 | 67 | 1002.4 |
| 20260504031515 | 37 | 136 | 0.0 | 2.0 | 0.00 | 0.00 | 0.00 | 67 | 1002.4 |
| 20260504031014 | 37 | 136 | 0.0 | 2.0 | 0.00 | 0.00 | 0.00 | 68 | 1002.4 |
| 20260504030514 | 37 | 136 | 0.0 | 2.0 | 0.00 | 0.01 | 0.00 | 68 | 1002.4 |
| 20260504030016 | 37 | 136 | 0.0 | 2.0 | 0.00 | 0.01 | 0.00 | 69 | 1002.5 |
| 20260504025514 | 37 | 136 | 1.0 | 2.0 | 0.00 | 0.01 | 0.00 | 69 | 1002.5 |
| 20260504025017 | 37 | 136 | 1.0 | 2.0 | 0.00 | 0.01 | 0.00 | 70 | 1002.6 |
| 20260504024514 | 37 | 136 | 1.0 | 3.0 | 0.00 | 0.01 | 0.00 | 70 | 1002.6 |
| 20260504024013 | 37 | 136 | 1.0 | 5.0 | 0.00 | 0.01 | 0.00 | 71 | 1002.6 |
| 20260504023513 | 37 | 136 | 2.0 | 5.0 | 0.00 | 0.01 | 0.00 | 70 | 1002.6 |
| 20260504023013 | 37 | 130 | 1.0 | 3.0 | 0.00 | 0.01 | 0.00 | 69 | 1002.7 |
| 20260504022513 | 37 | 132 | 2.0 | 3.0 | 0.00 | 0.01 | 0.00 | 70 | 1002.7 |
| 20260504022012 | 37 | 119 | 1.0 | 3.0 | 0.00 | 0.01 | 0.00 | 71 | 1002.8 |
| 20260504021512 | 37 | 119 | 1.0 | 3.0 | 0.00 | 0.01 | 0.00 | 70 | 1002.7 |
| 20260504021011 | 37 | 119 | 1.0 | 3.0 | 0.00 | 0.01 | 0.00 | 71 | 1002.8 |
| 20260504020511 | 37 | 128 | 2.0 | 3.0 | 0.00 | 0.01 | 0.00 | 71 | 1002.8 |
| 20260504020012 | 38 | 134 | 2.0 | 3.0 | 0.00 | 0.01 | 0.00 | 70 | 1002.8 |
| 20260504015511 | 37 | 143 | 1.0 | 3.0 | 0.00 | 0.01 | 0.00 | 70 | 1002.8 |
| 20260504015012 | 38 | 143 | 1.0 | 3.0 | 0.00 | 0.01 | 0.00 | 70 | 1002.8 |
| 20260504014512 | 38 | 143 | 0.0 | 2.0 | 0.00 | 0.01 | 0.00 | 70 | 1002.8 |
| 20260504014010 | 38 | 143 | 1.0 | 2.0 | 0.00 | 0.01 | 0.00 | 70 | 1002.8 |
| 20260504013516 | 38 | 143 | 1.0 | 2.0 | 0.00 | 0.01 | 0.00 | 69 | 1002.8 |
| 20260504013014 | 38 | 143 | 1.0 | 3.0 | 0.00 | 0.01 | 0.00 | 69 | 1002.8 |
| 20260504012510 | 39 | 143 | 1.0 | 3.0 | 0.00 | 0.01 | 0.00 | 69 | 1002.9 |
| 20260504012010 | 39 | 159 | 1.0 | 4.0 | 0.00 | 0.01 | 0.00 | 69 | 1002.8 |
| 20260504011510 | 39 | 137 | 1.0 | 3.0 | 0.00 | 0.01 | 0.00 | 69 | 1002.7 |
| 20260504011009 | 39 | 134 | 1.0 | 2.0 | 0.00 | 0.01 | 0.00 | 68 | 1002.7 |
| 20260504010509 | 40 | 123 | 1.0 | 2.0 | 0.00 | 0.02 | 0.00 | 67 | 1002.6 |
| 20260504010009 | 40 | 123 | 1.0 | 2.0 | 0.00 | 0.02 | 0.00 | 66 | 1002.6 |
| 20260504005510 | 41 | 123 | 1.0 | 2.0 | 0.00 | 0.02 | 0.00 | 65 | 1002.5 |
| 20260504005009 | 41 | 123 | 1.0 | 2.0 | 0.00 | 0.02 | 0.00 | 65 | 1002.5 |
| 20260504004524 | 41 | 123 | 1.0 | 2.0 | 0.00 | 0.02 | 0.00 | 63 | 1002.5 |
| 20260504004010 | 42 | 119 | 0.0 | 2.0 | 0.00 | 0.02 | 0.00 | 63 | 1002.5 |
| 20260504003509 | 42 | 119 | 0.0 | 2.0 | 0.00 | 0.02 | 0.00 | 63 | 1002.5 |
| 20260504003009 | 43 | 119 | 0.0 | 2.0 | 0.00 | 0.02 | 0.00 | 61 | 1002.5 |
| 20260504002508 | 44 | 119 | 1.0 | 3.0 | 0.00 | 0.02 | 0.00 | 60 | 1002.4 |
| 20260504002008 | 44 | 119 | 1.0 | 4.0 | 0.00 | 0.02 | 0.00 | 58 | 1002.4 |
| 20260504001521 | 45 | 155 | 0.0 | 3.0 | 0.00 | 0.02 | 0.00 | 54 | 1002.4 |
| 20260504001007 | 45 | 206 | 1.0 | 2.0 | 0.00 | 0.02 | 0.00 | 54 | 1002.4 |
| 20260504000509 | 46 | 242 | 0.0 | 3.0 | 0.00 | 0.02 | 0.00 | 52 | 1002.3 |
| 20260504000006 | 46 | 221 | 0.0 | 3.0 | 0.00 | 0.02 | 0.00 | 52 | 1002.4 |
| 20260503235506 | 46 | 178 | 0.0 | 3.0 | 0.00 | 0.02 | 0.00 | 53 | 1002.4 |
| 20260503235007 | 46 | 180 | 1.0 | 3.0 | 0.00 | 0.02 | 0.00 | 53 | 1002.3 |
| 20260503234510 | 47 | 202 | 0.0 | 3.0 | 0.00 | 0.02 | 0.00 | 52 | 1002.3 |
| 20260503234007 | 47 | 150 | 0.0 | 2.0 | 0.00 | 0.02 | 0.00 | 52 | 1002.2 |
| 20260503233509 | 47 | 171 | 0.0 | 3.0 | 0.00 | 0.02 | 0.00 | 51 | 1002.3 |
| 20260503233005 | 47 | 171 | 1.0 | 4.0 | 0.00 | 0.02 | 0.00 | 51 | 1002.2 |
| 20260503232507 | 47 | 177 | 0.0 | 3.0 | 0.00 | 0.02 | 0.00 | 51 | 1002.2 |
| 20260503232007 | 47 | 208 | 0.0 | 2.0 | 0.00 | 0.02 | 0.00 | 52 | 1002.1 |